AZERSPACE 2 (IS-38)

Last updated on Tue Oct 08 2024 00:02:41 GMT+0000 (Coordinated Universal Time)

1 43632U 18074A 24281.27757880 .00000147 00000+0 00000+0 0 9999 2 43632 0.0170 198.4157 0001431 354.2922 328.7438 1.00271015 22252
UTC large
Height (km)
Speed (km/s)
/
Latitude / Longitude
Inclination (degrees)
Orbital Period (minutes)
Azimuth
Elevation
Range (km)
Doppler Factor

Next 0 passes for location: London (51.5072 / 0.1276)

Sorry there are no passes over London.